Location: Carthage
(33.8834°N, 106.6595°W)
Time: 12:27:17
(UTC+00:00)

Cosmos 1503 Rocket - Pass Details

Date: 13 February 2026
Orbit: 748 x 787 km, 74.0° (Epoch: 11 March)

Event Time Altitude Azimuth Distance (km) Brightness Sun altitude
Exits shadow 12:07:32 19° 202° (SSW) 1,729 5.6 -22.4°
Maximum altitude 12:11:15 78° 287° (WNW) 773 3.8 -21.7°
Drops below altitude 10° 12:16:27 10° 14° (NNE) 2,293 6.6 -20.6°
Sets 12:18:51 0° 16° (NNE) 3,228 7.4 -20.1°
